Theta_e
312 312 312 312 312 312 314 316 317 318 321 322 323 325 326 326 325 325 326 327 327 326 326 326 325 324 324 324 325 326 326 327 327 328 329 329 328 328 328 328 328 327 327 327 327 325 325 323 319 318 319 319 319 318 318 316 315 315 314 313 313 312 312 312 313 312 311 309 311 311 313 314 314 313 315 315 314 314 313 313 312 312 312 311 312
312 311 312 313 314 314 313 314 313 315 318 319 320 322 325 326 326 326 326 326 327 327 327 327 327 327 325 325 325 325 325 324 325 327 328 329 328 328 328 328 329 328 326 327 326 327 326 325 323 320 319 319 319 319 318 315 315 315 314 312 313 313 313 313 314 312 310 309 306 306 308 311 313 312 313 315 315 315 313 313 312 312 311 311 311
311 312 313 314 314 315 315 313 314 315 317 319 320 319 321 323 326 326 327 327 327 327 327 327 328 327 327 326 326 324 326 327 327 326 327 328 328 328 328 328 329 328 328 326 327 326 326 326 324 322 320 319 318 318 318 317 317 316 315 314 312 312 313 313 314 315 311 309 305 305 304 306 308 309 312 314 315 315 314 313 312 312 312 311 311
309 311 312 313 313 314 314 314 314 314 314 316 318 319 320 321 323 325 326 327 327 327 325 328 328 328 327 327 325 325 324 324 325 324 326 327 327 328 328 328 328 328 328 327 326 327 326 325 325 324 322 320 319 318 317 317 317 317 316 314 314 311 312 312 314 315 314 310 304 307 301 300 299 305 310 313 315 315 314 314 312 312 312 311 309
309 310 310 311 311 312 313 315 315 314 315 315 318 319 321 320 322 324 326 326 327 326 326 326 326 324 325 323 320 321 319 320 322 323 324 325 326 326 327 328 328 328 328 328 326 326 326 326 325 325 323 320 319 319 318 318 318 318 317 316 314 313 312 313 313 315 315 316 311 303 301 299 303 300 302 307 311 313 314 314 313 311 310 309 308
309 310 311 311 311 310 310 310 312 313 314 315 316 319 320 320 321 322 323 325 326 327 326 326 325 325 323 323 321 320 320 320 320 321 322 323 324 326 327 327 328 328 328 328 327 325 326 326 325 324 323 321 319 319 319 318 318 318 318 317 316 315 314 312 311 312 315 315 315 313 308 304 301 300 303 301 300 312 313 314 313 312 312 309 308
309 310 309 308 310 310 311 310 311 313 314 315 315 315 316 318 320 321 322 323 325 325 326 325 325 325 324 324 323 322 321 322 323 324 324 325 325 325 326 326 327 327 327 328 327 327 326 326 326 325 324 323 320 319 318 318 318 318 318 317 317 316 315 312 311 312 312 314 315 315 311 304 303 304 303 300 301 300 307 310 311 312 312 310 308
310 309 310 310 311 311 312 313 311 313 315 314 314 314 314 315 316 320 322 321 323 324 325 325 325 325 324 324 323 323 322 322 322 323 324 324 324 324 324 325 326 327 327 327 327 327 326 326 326 325 324 324 321 319 319 319 319 319 318 318 318 316 315 313 312 313 311 313 315 314 313 312 308 305 301 305 299 295 300 303 307 310 311 311 311
308 308 308 310 311 312 311 311 311 311 311 313 314 314 315 315 314 316 319 321 321 322 324 325 324 325 324 324 323 323 324 323 322 321 321 322 322 323 323 323 324 325 326 326 327 327 325 325 326 325 324 323 320 320 319 319 318 318 317 317 317 317 316 316 314 313 313 312 313 312 313 313 312 310 308 304 303 298 303 303 304 303 306 309 310
304 306 307 308 310 310 310 311 310 309 309 310 311 312 313 313 314 313 315 318 320 321 321 323 324 323 324 323 323 323 322 321 319 320 320 320 321 321 322 322 323 323 324 325 325 326 326 325 325 325 324 324 320 321 320 319 319 318 318 317 317 316 317 316 315 314 313 313 313 313 312 312 310 310 308 307 305 306 306 302 303 303 304 308 310
304 305 307 307 308 310 310 310 309 307 307 308 310 310 311 311 312 313 314 315 316 319 320 321 323 323 323 323 322 322 322 321 320 320 319 319 320 321 321 321 322 322 323 323 324 325 325 324 324 325 324 322 320 321 320 320 319 319 318 318 317 317 316 316 314 314 313 312 313 313 313 312 311 309 309 309 307 304 304 306 307 304 306 307 307
305 307 308 308 309 308 307 307 306 306 307 308 307 308 308 310 310 311 312 312 313 316 319 321 321 322 323 323 322 322 322 322 321 321 321 320 320 320 321 321 321 322 322 322 323 324 324 324 323 324 323 323 322 322 322 321 320 319 319 318 317 317 317 315 315 314 313 312 312 313 313 313 313 312 311 310 308 307 306 305 306 303 301 305 303
306 306 307 307 306 306 306 306 305 306 307 307 308 307 307 308 308 309 310 310 311 313 316 318 320 321 322 322 322 322 322 322 322 322 322 321 321 320 320 319 320 320 321 321 322 323 323 323 324 323 323 323 323 323 322 322 321 320 319 318 317 316 316 316 315 314 314 313 312 313 314 313 313 314 313 309 309 309 306 304 305 303 305 304 304
306 306 305 305 306 306 305 306 306 305 305 307 306 306 306 308 307 308 310 309 309 310 313 315 318 320 322 322 323 322 321 321 322 322 323 322 322 321 321 320 320 321 321 321 323 323 323 323 323 324 323 323 323 323 323 323 322 321 320 319 318 318 317 316 316 315 315 314 314 312 311 313 314 314 313 311 309 308 306 305 304 299 303 306 299
304 304 306 306 307 307 306 306 306 306 305 305 304 305 304 305 306 307 308 309 308 309 310 312 315 318 320 322 322 322 322 321 322 322 323 322 322 322 322 322 321 322 322 323 322 322 323 323 323 323 323 323 323 322 322 322 322 322 321 320 319 319 318 317 316 316 315 314 314 314 312 312 313 314 314 313 312 311 310 309 306 304 301 300 301
304 305 307 308 307 306 306 307 306 305 304 302 303 303 304 305 305 305 307 308 307 307 308 310 311 314 317 320 321 321 320 321 321 320 321 323 323 322 322 322 322 322 323 322 323 322 322 322 322 322 323 323 323 322 322 322 322 322 322 321 320 320 319 318 318 317 316 316 315 315 314 313 313 313 314 314 313 313 312 311 309 307 304 302 295
304 305 306 306 305 305 305 306 305 303 302 303 302 302 303 304 304 304 305 305 306 306 307 308 309 310 313 316 319 320 321 320 321 321 321 321 322 322 323 323 323 322 323 322 322 322 322 323 322 323 323 323 323 322 322 322 322 321 321 321 320 321 319 319 319 318 318 318 317 316 315 315 315 314 313 313 314 314 313 312 312 310 309 305 303
305 305 305 305 305 306 306 304 304 304 303 301 301 300 301 302 303 303 303 303 304 304 305 306 307 307 309 311 315 319 321 321 321 321 321 320 320 321 322 322 322 323 322 323 322 322 322 318 322 322 323 323 322 322 322 321 321 321 321 321 321 321 320 319 319 319 319 319 318 318 317 316 316 315 314 313 312 314 314 313 312 312 311 308 307
305 305 304 303 303 304 304 304 303 302 301 300 301 301 301 301 301 302 303 303 303 304 304 306 306 308 310 310 311 314 317 320 321 321 320 320 320 320 320 321 322 322 321 320 320 321 321 321 322 322 322 322 322 322 322 321 321 320 320 321 321 321 320 319 320 319 319 318 317 317 318 317 317 316 316 315 313 313 314 314 313 313 312 311 310
303 303 303 302 302 302 302 302 301 302 301 300 299 298 300 301 300 301 301 301 301 302 302 303 304 304 306 306 308 311 314 316 318 319 319 320 320 320 320 320 320 320 321 321 321 320 320 320 320 321 321 321 321 322 322 321 321 320 320 320 320 320 320 319 319 319 319 319 318 317 316 317 317 317 316 316 316 314 314 313 313 313 313 313 312
302 301 301 302 302 303 302 300 300 298 299 297 298 300 301 300 299 300 301 301 300 301 301 302 303 304 303 305 306 307 309 313 315 317 318 319 320 319 320 320 319 319 320 319 319 320 320 319 319 319 320 320 320 320 321 321 320 320 320 320 319 319 318 319 318 318 318 318 317 317 316 317 317 317 317 317 316 316 315 314 314 313 312 312 312
300 300 300 300 301 302 301 299 299 299 300 300 300 298 299 299 301 300 299 300 300 301 300 302 301 303 303 305 306 306 308 310 312 314 316 318 319 319 319 318 317 319 318 319 318 319 319 319 318 319 319 319 320 320 320 320 319 319 319 320 319 318 317 317 317 316 316 318 317 316 316 316 317 317 317 315 316 316 316 315 314 313 313 312 313
300 300 300 300 300 300 299 299 300 299 299 298 299 299 300 299 298 298 299 301 300 301 300 300 301 302 303 304 305 306 307 308 310 312 313 315 316 316 316 316 317 318 316 317 318 318 318 318 318 318 318 318 319 319 319 319 318 318 317 317 318 317 316 315 315 316 316 316 315 315 316 316 317 315 315 316 314 314 314 313 313 312 312 313 312
299 299 300 301 300 297 297 299 300 299 298 299 300 300 299 297 299 297 299 300 299 298 299 298 299 300 301 301 303 304 304 305 305 308 309 311 313 313 313 314 316 316 315 316 316 318 317 317 317 316 316 317 317 317 316 316 318 317 316 317 316 317 317 316 316 316 315 315 315 315 316 316 315 314 315 315 314 314 313 313 313 313 313 313 313
300 301 303 302 302 302 300 298 297 298 297 299 300 300 298 298 297 298 299 298 297 296 296 297 296 298 298 298 299 299 300 302 303 304 305 306 307 308 309 311 313 313 315 314 313 313 315 315 317 317 317 316 316 316 317 316 316 316 316 317 317 317 317 317 317 317 311 316 316 315 316 316 315 314 314 314 314 313 313 313 313 313 313 313 313
299 298 299 302 302 300 298 296 296 297 298 299 299 299 298 297 299 296 296 297 297 293 293 294 294 295 297 296 297 296 298 299 300 301 303 304 305 306 308 308 310 314 313 313 314 312 312 314 314 315 316 316 315 314 315 316 316 315 315 316 316 317 317 317 317 317 317 316 316 316 316 315 314 314 313 313 313 312 312 312 312 312 312 312 312
299 299 298 297 299 301 301 299 297 296 296 298 298 299 297 296 297 295 293 293 295 292 291 292 294 294 295 297 297 297 297 297 298 300 301 303 304 304 305 307 307 308 310 311 310 310 310 311 313 313 314 315 315 313 315 315 316 316 316 316 316 317 317 317 317 317 317 317 317 316 315 315 314 314 313 313 312 311 311 311 311 311 311 310 309
295 295 296 297 298 298 299 299 298 298 297 297 297 297 296 296 296 295 295 293 296 292 293 294 293 294 294 296 296 296 296 297 297 298 300 302 303 303 304 305 303 306 308 309 310 311 310 308 311 312 314 313 313 313 314 315 315 316 316 316 316 316 316 316 316 316 316 316 316 316 316 315 315 315 314 314 313 312 311 310 311 310 309 308 307
297 297 298 296 296 297 298 298 299 298 297 297 297 297 295 293 293 293 292 295 294 292 294 293 292 293 295 296 295 295 296 295 296 297 298 300 301 301 302 303 303 304 306 306 308 309 308 309 309 310 311 311 312 313 314 314 313 314 316 316 317 316 316 315 315 315 315 316 316 316 316 316 313 304 304 305 306 306 312 310 309 309 308 308 307
296 295 295 295 296 295 296 296 296 297 298 297 297 297 297 297 296 294 294 296 293 294 293 293 293 294 294 294 294 294 294 294 295 296 296 297 297 298 298 300 302 302 302 301 301 302 305 308 309 309 309 310 311 314 307 305 306 313 316 317 317 316 315 315 314 314 314 315 315 315 314 302 301 299 299 300 301 302 303 309 312 310 309 307 304
295 295 294 294 293 293 293 293 295 298 298 299 299 298 295 295 295 295 295 295 292 293 293 292 294 294 293 292 292 293 293 293 294 294 294 294 296 296 296 297 298 299 299 298 297 300 303 305 307 309 310 309 311 313 304 305 304 303 311 316 316 316 315 315 314 314 314 313 314 315 315 307 301 299 301 298 300 300 300 301 302 304 305 309 303
294 294 292 292 293 294 293 294 295 295 296 297 298 297 295 296 295 295 295 294 293 292 292 292 292 293 293 293 292 292 291 292 292 293 293 293 292 292 293 294 295 295 296 293 296 299 302 304 306 307 308 310 311 303 304 304 303 302 301 309 315 316 315 315 315 314 314 313 312 312 312 313 311 309 309 305 299 297 298 299 299 300 300 301 303
292 292 291 291 292 292 295 296 294 296 296 295 293 293 294 294 294 294 294 292 292 292 292 292 292 292 292 293 292 292 292 292 292 292 291 291 290 291 291 292 293 292 290 293 296 297 299 300 301 303 305 308 310 304 303 302 302 302 302 303 312 314 315 315 315 314 314 314 313 311 311 311 313 298 298 306 307 304 297 297 298 298 298 299 301
290 290 292 293 293 293 293 294 294 293 292 291 291 291 291 291 292 292 292 292 292 292 291 292 292 292 292 292 292 292 292 292 291 290 289 289 289 290 290 289 289 289 290 291 291 293 295 296 297 298 300 302 304 301 301 301 300 300 301 302 309 312 312 313 314 314 314 313 313 310 308 307 305 304 305 306 307 307 306 303 301 301 302 299 297
291 292 292 291 291 290 290 291 292 291 289 290 292 292 292 292 291 291 290 290 290 290 291 290 291 291 291 291 291 291 291 291 291 290 289 289 288 288 288 289 288 288 289 290 290 290 292 293 295 295 296 297 300 298 298 298 299 299 299 298 305 308 310 311 312 313 313 313 312 311 309 308 307 305 304 302 302 303 303 303 302 301 301 301 301
291 290 290 289 288 289 288 289 289 289 290 289 289 290 291 291 290 290 290 290 289 289 289 289 289 289 289 289 289 289 290 290 290 289 289 289 289 288 288 288 287 287 287 287 287 289 291 292 293 293 294 295 296 296 296 296 297 298 298 300 302 304 306 307 309 310 310 310 309 309 307 305 304 303 299 297 299 302 303 299 296 296 296 297 298
290 289 290 290 288 287 287 287 286 286 289 289 288 288 289 289 289 290 289 289 289 289 289 289 289 289 289 289 289 289 288 288 288 288 288 288 288 289 288 286 287 287 286 287 287 288 288 289 290 291 292 293 293 293 294 295 296 297 297 300 301 301 303 304 306 306 307 306 304 303 303 304 303 303 299 299 298 297 300 297 295 295 295 294 295
288 287 287 287 288 286 286 285 285 285 285 285 284 286 286 286 287 287 288 288 288 288 289 288 288 288 288 288 288 288 288 288 288 287 287 287 287 287 287 287 287 288 287 287 287 287 287 287 288 289 290 291 291 291 293 294 294 295 295 298 299 299 299 300 301 301 301 301 301 294 294 301 302 302 298 298 298 296 297 296 294 293 292 292 292
287 287 287 287 287 286 287 285 285 286 286 284 284 284 285 285 285 285 285 286 287 287 288 287 287 287 287 287 287 287 286 287 287 287 287 287 287 287 287 287 287 287 287 287 287 287 287 287 286 288 288 289 290 290 292 293 293 294 293 296 296 297 296 297 298 299 299 300 300 295 292 294 297 298 298 298 298 296 298 297 296 294 293 292 293
286 286 286 286 286 285 286 286 286 285 284 284 283 284 283 284 284 283 284 285 286 286 286 286 286 286 286 286 286 285 285 285 285 286 286 286 287 286 287 287 286 287 287 287 287 287 287 287 287 288 289 290 290 290 291 292 293 293 294 294 295 295 294 295 296 296 297 297 297 296 294 294 295 295 297 298 297 296 296 297 295 294 293 293 293
286 286 285 286 285 285 285 284 285 284 284 284 284 283 284 283 283 282 283 284 285 285 285 285 285 285 285 284 285 284 284 285 285 285 285 285 285 285 286 286 286 286 286 286 286 286 287 287 288 288 289 289 290 290 290 291 292 293 294 293 293 294 294 294 295 294 296 296 297 296 294 293 295 295 295 296 296 296 295 295 295 294 295 296 292
282 283 284 284 284 284 283 284 285 285 284 284 284 283 283 282 282 283 283 284 284 284 284 284 284 284 284 285 285 285 285 286 286 285 285 285 285 284 284 285 285 285 285 285 286 286 287 287 288 288 288 289 288 288 289 290 291 292 293 293 292 292 293 293 293 294 294 295 295 295 293 292 293 294 294 295 295 296 295 293 295 295 296 295 291
284 285 283 283 284 283 284 283 285 284 284 283 283 283 283 282 283 284 284 283 283 283 283 283 283 283 284 284 285 285 286 286 286 286 286 286 286 285 284 283 283 284 284 285 285 286 286 286 287 287 287 287 287 287 287 288 289 291 292 292 293 292 293 292 292 292 293 295 295 295 294 291 292 293 294 295 295 296 294 294 295 295 294 294 291
281 281 282 283 284 284 283 282 283 284 284 283 283 282 283 283 285 286 286 286 285 284 284 284 283 283 283 284 285 285 286 286 286 286 286 286 286 286 286 285 284 283 284 285 285 284 285 286 286 287 286 285 285 285 286 287 288 290 291 292 292 293 293 291 291 292 293 293 294 294 292 293 292 292 293 294 294 294 292 294 294 294 293 292 290
284 283 282 282 283 282 282 281 281 282 283 283 281 282 281 282 284 283 284 285 285 285 285 285 285 284 284 285 285 285 285 286 286 286 285 286 286 286 286 286 285 285 284 284 285 285 285 285 286 286 287 286 286 285 285 287 287 288 290 291 292 292 292 292 290 290 290 291 291 292 292 292 292 292 293 293 293 292 293 293 293 292 290 290 289
281 280 280 281 280 280 280 280 281 281 282 282 281 280 282 284 283 283 282 282 282 283 283 284 284 285 285 285 284 285 285 285 286 286 285 285 285 285 285 285 285 285 284 284 284 284 284 285 285 286 286 287 286 286 286 286 286 286 287 288 289 289 288 289 288 289 288 289 289 290 290 291 290 291 290 290 290 290 290 290 290 290 290 289 289
281 281 280 280 279 281 281 280 280 280 281 281 279 281 282 283 282 282 282 281 281 282 282 283 283 284 284 284 284 284 284 284 284 285 285 285 285 285 285 285 285 285 285 284 284 284 284 284 285 285 286 286 286 286 285 285 286 286 287 288 288 288 287 287 288 288 288 289 289 289 290 290 290 290 289 289 289 288 288 289 289 289 289 289 289
279 279 279 278 279 278 279 280 281 282 281 281 281 281 282 281 281 282 282 282 282 282 282 281 281 282 283 283 283 283 283 283 284 284 284 284 285 285 285 285 285 285 284 284 284 284 284 284 285 285 286 286 286 286 286 286 286 288 288 288 288 288 288 289 289 289 289 289 289 288 288 288 288 288 287 288 288 288 288 288 288 288 288 288 287
278 278 279 279 278 277 279 279 281 282 281 282 282 281 282 282 283 282 282 281 281 281 281 280 280 281 281 282 283 282 282 282 283 283 284 284 284 285 285 285 286 286 286 285 285 286 286 285 285 286 286 286 287 287 287 288 288 289 288 289 289 289 289 289 288 290 289 288 288 287 287 287 287 287 287 287 287 287 286 287 287 287 287 287 287
278 279 278 277 277 277 278 279 280 280 280 281 281 282 282 282 282 282 281 281 281 280 279 278 279 280 280 280 280 280 281 282 282 283 283 284 285 286 286 285 285 286 286 287 287 286 287 287 286 287 286 287 287 288 289 289 289 289 289 289 289 290 290 290 289 290 289 288 288 287 287 287 287 287 286 286 286 286 285 285 285 286 286 286 286
277 277 277 277 278 277 276 276 279 279 279 279 279 280 280 281 281 282 281 280 278 278 278 278 278 278 279 279 279 279 280 280 281 282 283 283 283 285 286 286 286 286 286 287 287 287 287 287 286 286 287 288 288 288 288 288 288 288 289 289 289 289 290 290 291 289 288 287 287 287 287 287 287 287 287 287 287 286 285 285 285 285 285 285 285
Wind_Speed
7 8 8 10 9 9 9 9 9 9 9 10 11 11 12 12 10 12 11 10 9 9 9 10 10 9 8 10 12 11 11 10 9 10 9 10 11 10 10 10 10 10 11 12 12 10 9 8 8 8 9 9 10 11 10 10 10 10 9 8 11 10 9 7 7 7 7 6 6 7 7 6 8 8 9 8 9 9 8 8 8 8 8 8 8
6 6 8 7 8 7 7 7 7 8 9 9 11 12 12 11 12 12 9 10 11 12 11 11 12 12 13 13 12 10 10 11 12 11 11 10 10 10 10 10 11 11 11 11 12 12 10 9 10 10 9 9 10 8 8 9 9 9 8 7 8 12 10 9 8 7 7 9 5 4 5 6 7 7 8 10 10 9 8 8 8 9 9 9 7
7 9 9 9 10 9 6 7 8 11 12 12 12 9 9 10 11 10 10 11 12 12 11 12 11 11 11 10 11 8 8 9 9 9 9 10 10 10 10 11 12 11 11 11 11 12 13 11 10 10 10 9 9 9 9 10 10 12 11 11 8 7 8 6 10 12 10 5 2 1 6 4 5 5 8 10 10 10 8 9 9 9 12 9 8
10 10 11 11 10 9 6 7 9 8 8 7 7 10 9 10 10 10 11 12 12 13 13 13 12 10 9 7 5 7 6 6 7 6 8 9 10 10 11 11 12 12 12 12 11 11 13 13 11 10 11 10 10 10 10 12 11 11 11 12 9 8 8 10 10 12 9 9 4 10 3 2 5 10 12 10 10 11 10 11 8 10 10 9 7
10 9 10 10 9 10 10 11 7 7 9 9 9 9 9 12 12 12 12 12 12 12 13 10 7 5 5 4 2 3 3 4 6 9 10 10 10 11 14 11 12 12 12 13 12 13 12 12 12 11 11 11 11 11 11 12 12 11 12 11 12 12 11 8 8 10 13 11 8 5 1 2 9 4 2 7 6 9 11 12 10 9 9 9 9
10 12 12 11 8 8 7 7 6 7 8 9 9 11 10 10 9 10 9 10 11 11 11 9 9 9 8 8 9 8 10 9 12 15 12 13 14 12 9 11 12 12 12 13 13 12 13 13 13 12 12 11 11 12 11 10 12 12 13 13 13 13 10 8 8 7 11 13 14 9 6 8 4 4 3 7 2 8 8 9 11 11 10 9 9
9 10 7 6 8 8 9 7 7 8 9 8 7 8 8 8 7 9 9 9 8 7 9 9 9 9 11 12 12 13 13 12 11 9 10 10 8 9 10 10 11 13 13 13 13 13 13 13 13 13 13 12 11 11 12 13 13 13 11 12 13 11 10 10 12 10 6 9 11 13 10 3 4 5 7 1 6 3 5 8 10 10 10 10 10
12 10 9 9 10 10 11 11 6 8 8 5 6 6 7 9 8 8 8 8 7 7 9 11 11 11 11 12 12 13 14 13 9 9 7 6 8 10 9 9 11 12 13 13 14 14 13 14 14 13 13 13 12 12 13 12 11 11 12 13 11 11 12 13 12 10 12 12 12 12 14 12 6 3 3 7 4 3 4 3 5 7 9 10 11
10 8 8 9 10 12 10 7 7 5 4 5 6 7 7 7 8 6 7 7 6 7 9 10 11 12 12 11 12 12 12 10 5 6 7 7 9 9 9 10 10 12 13 14 14 15 13 14 14 14 14 14 12 12 12 12 14 13 13 12 14 13 12 13 11 11 11 10 9 12 11 11 10 10 6 2 5 4 9 7 8 3 6 9 10
5 7 8 8 8 6 5 4 4 4 3 3 4 4 5 5 6 6 7 6 6 6 7 9 11 11 11 12 13 12 8 7 4 6 6 6 10 11 10 10 10 10 12 14 14 14 14 14 14 16 16 14 12 13 12 13 13 14 14 14 14 14 12 12 14 11 9 9 9 9 10 10 8 9 9 9 7 8 12 6 7 8 10 11 11
5 5 6 7 6 4 0 1 3 4 4 4 4 3 4 4 5 5 7 4 4 5 7 9 10 10 11 12 12 12 9 8 8 8 7 7 10 11 10 11 10 11 10 11 14 14 14 13 14 15 14 13 13 13 14 14 13 13 13 13 14 15 13 13 13 12 10 10 11 10 12 13 14 13 15 12 12 9 8 12 10 9 12 11 9
3 2 3 1 1 0 1 2 4 5 6 6 5 4 4 3 2 4 5 4 4 4 5 8 7 9 10 11 12 12 11 9 11 12 11 11 11 11 9 8 10 10 10 11 12 14 13 13 13 14 14 14 14 14 13 13 12 11 11 12 13 15 14 13 12 13 14 11 12 11 11 11 10 12 10 9 11 13 11 12 11 4 5 10 2
4 3 1 1 2 0 2 4 4 5 4 5 5 4 4 4 4 4 6 5 5 4 5 6 6 9 9 10 11 10 10 11 11 11 11 11 10 10 9 10 9 9 11 12 13 14 13 13 13 13 13 14 15 13 13 13 12 11 12 13 13 14 14 15 13 15 16 15 14 12 11 11 12 11 9 7 8 8 8 11 11 5 10 7 6
3 3 3 3 1 0 2 3 3 3 3 4 4 4 4 3 4 4 7 5 5 5 5 6 7 8 8 9 10 10 10 10 10 11 11 10 9 10 10 10 10 12 12 13 13 13 13 15 14 14 14 13 13 14 13 13 13 12 12 13 14 14 12 14 15 15 14 16 13 11 12 12 12 11 11 9 10 8 10 12 10 4 6 11 3
2 4 4 2 1 0 1 2 1 1 2 3 4 4 4 4 4 4 5 6 4 5 5 6 7 6 7 8 9 8 10 10 10 10 10 10 10 10 10 10 11 11 11 12 10 11 13 13 14 14 14 14 13 13 13 13 13 12 11 13 13 12 13 13 13 15 15 16 15 14 13 11 13 12 11 12 11 12 12 11 9 11 8 6 8
0 2 1 1 0 0 0 0 1 1 2 3 4 4 4 4 4 4 5 6 5 5 5 6 7 6 6 7 9 9 9 9 9 9 10 10 10 10 11 11 10 10 10 10 10 11 12 13 14 15 15 14 14 14 14 13 13 13 12 12 14 10 13 15 14 14 16 17 17 15 12 13 12 12 12 12 12 12 11 9 8 10 12 13 5
3 3 1 2 3 1 1 1 0 2 2 3 4 4 4 4 4 5 5 4 5 5 6 5 6 5 7 7 7 8 9 10 11 12 11 10 9 10 10 11 10 10 10 9 10 10 11 13 13 14 15 15 14 14 14 14 13 13 13 13 14 13 14 14 14 14 15 15 14 16 15 13 12 12 10 11 12 11 11 10 10 12 11 11 12
2 2 2 1 1 1 2 2 2 1 2 3 4 4 4 4 4 5 4 5 6 5 5 5 6 6 7 7 7 8 9 10 11 11 10 9 10 10 10 10 11 10 10 9 9 11 11 13 13 13 14 14 14 14 14 14 14 13 14 14 14 13 14 13 13 14 15 13 14 14 13 13 12 12 12 10 10 12 11 12 11 11 10 14 13
3 4 5 3 2 1 2 1 2 4 4 4 4 4 4 4 4 4 6 6 5 5 5 5 5 6 6 7 7 8 8 9 9 9 9 10 11 11 11 12 11 10 10 9 9 9 11 12 12 13 12 13 13 13 13 13 13 13 13 13 13 13 14 14 13 13 13 12 14 15 14 14 12 13 12 11 10 10 11 11 11 10 12 14 14
6 5 5 4 2 2 1 0 0 2 3 4 4 3 5 5 4 4 5 5 4 5 5 6 6 5 7 6 7 7 7 8 8 8 9 11 12 11 12 11 12 9 9 10 9 9 10 11 10 11 11 11 12 12 12 13 12 13 13 12 12 13 15 15 14 12 11 12 14 15 15 14 12 12 12 12 12 11 11 11 11 11 12 12 12
7 6 5 4 2 0 0 1 2 3 3 2 4 5 5 4 5 5 5 7 4 4 4 6 5 6 6 8 8 7 8 7 8 8 10 11 11 11 11 11 8 9 9 9 9 10 9 9 10 10 11 11 12 12 11 11 12 13 13 13 12 13 15 14 13 14 12 13 14 15 15 14 13 14 13 12 12 13 12 12 11 10 11 10 11
8 7 6 4 2 1 1 3 2 6 6 7 6 4 5 5 5 4 4 6 5 4 4 5 4 5 5 7 8 7 7 7 7 8 9 10 10 10 10 8 9 10 8 10 10 9 9 9 9 10 10 11 11 12 11 11 12 12 13 11 12 13 14 14 13 14 13 13 13 15 15 13 12 15 13 12 12 12 12 12 11 10 11 9 9
7 6 5 4 3 2 1 5 7 7 6 6 6 5 5 5 5 5 4 7 4 5 4 4 4 4 6 6 6 7 7 7 8 8 9 9 9 9 7 9 9 9 8 9 10 10 10 10 10 10 10 11 12 11 10 11 12 12 13 13 13 13 14 15 15 16 15 13 14 14 15 12 11 12 12 11 9 10 9 10 11 8 11 11 9
2 2 3 2 1 1 3 4 5 6 6 6 7 6 5 4 5 5 5 6 5 4 5 4 4 5 6 6 7 7 7 8 7 9 9 9 8 8 7 8 10 9 10 10 9 10 10 10 10 11 11 11 11 11 10 10 13 13 13 14 14 14 14 15 16 16 14 14 15 14 15 13 11 12 12 10 10 9 9 9 10 9 10 11 11
1 1 0 1 1 1 3 4 5 5 5 6 7 7 5 5 5 5 5 5 5 4 4 5 4 6 7 7 9 7 7 8 9 8 9 9 8 8 7 8 8 9 10 9 9 9 10 10 11 12 12 11 12 11 11 11 12 12 13 14 14 14 15 15 16 15 14 14 14 15 15 12 11 13 12 12 11 12 11 10 11 10 11 12 10
1 3 4 3 4 4 4 5 5 5 6 6 6 6 6 5 6 4 4 5 6 4 4 5 5 5 7 8 9 7 8 8 9 8 9 9 9 7 8 7 8 10 9 9 10 9 9 11 11 12 11 12 11 10 11 12 13 12 12 13 13 13 14 15 15 15 14 14 14 15 14 12 12 14 14 12 11 12 11 12 13 12 11 11 12
3 5 4 4 5 7 6 5 5 6 6 6 5 6 5 5 6 5 4 5 6 5 4 4 6 6 6 8 9 9 9 8 8 9 8 8 8 8 8 9 7 8 9 10 8 9 9 9 11 10 11 11 10 10 11 12 13 13 13 14 14 14 14 14 13 14 13 13 14 14 13 13 14 14 14 13 11 11 11 12 11 11 11 10 11
5 5 6 8 8 6 7 6 6 7 6 5 5 5 5 6 5 5 6 5 5 5 5 6 6 6 6 8 7 7 8 9 8 8 9 9 8 8 8 8 6 8 9 9 9 9 9 8 10 11 12 10 10 10 11 12 12 12 11 12 12 12 13 12 13 13 12 12 13 13 14 14 14 14 14 13 12 13 11 13 12 12 12 11 10
7 8 8 6 6 6 7 7 7 6 6 6 6 6 5 4 3 4 5 6 6 5 6 6 6 6 7 7 7 6 6 7 7 7 8 9 8 8 8 8 8 8 8 7 7 7 8 9 10 10 10 9 10 12 11 11 10 11 10 12 12 12 12 13 13 12 12 12 12 13 14 13 15 17 19 17 16 15 12 12 11 10 11 11 12
7 7 7 5 6 7 7 6 6 6 7 6 5 4 4 4 5 5 5 6 6 6 5 6 6 7 6 6 7 7 7 7 7 8 8 8 8 8 8 8 9 8 7 6 6 6 7 9 10 9 9 9 10 10 13 16 14 11 10 11 11 12 12 12 12 12 12 13 13 12 13 17 18 18 19 20 21 20 20 17 14 13 14 13 12
7 7 7 6 6 6 5 5 6 8 6 5 3 3 4 4 5 5 5 6 5 6 6 6 7 6 6 6 6 6 6 7 7 7 7 7 8 7 7 8 8 7 7 7 6 8 8 7 8 9 9 9 10 10 14 14 15 16 12 11 11 11 11 11 12 12 13 13 13 14 14 16 18 18 18 21 21 22 23 24 24 21 17 15 13
8 7 6 5 5 5 5 6 6 5 5 5 6 5 5 6 5 5 6 5 5 5 6 6 7 7 7 7 7 6 6 7 7 7 7 7 7 7 8 8 7 8 8 5 7 8 8 8 8 9 9 10 10 12 13 14 14 14 13 11 10 11 11 12 12 12 12 11 11 10 10 10 11 13 14 14 16 19 20 22 25 24 22 21 20
8 7 5 4 5 4 4 4 4 5 5 4 4 5 6 6 6 6 5 5 5 5 5 6 7 7 7 8 7 7 7 7 7 7 7 7 7 8 8 8 8 7 5 7 8 8 9 8 8 10 11 11 10 12 12 14 14 14 14 12 11 12 12 12 12 13 13 12 11 12 13 12 12 15 11 10 10 13 19 24 24 24 23 22 21
6 3 2 2 2 3 2 1 1 2 3 3 3 4 4 3 4 4 5 5 5 6 5 5 6 7 7 8 8 8 9 9 8 7 6 7 7 8 7 7 7 6 6 8 7 9 9 9 9 9 10 10 11 13 14 14 12 13 15 14 13 14 14 14 14 14 13 14 13 12 11 10 8 8 10 13 15 15 15 15 15 14 14 17 19
2 4 4 4 4 4 5 6 6 5 3 4 6 6 6 5 5 5 3 4 4 5 5 5 6 6 7 8 9 9 9 10 10 8 8 7 6 7 7 7 7 7 7 8 8 7 8 7 8 8 10 12 11 13 14 16 15 15 13 10 9 10 11 13 14 13 13 13 12 11 11 13 12 12 13 14 13 11 10 11 12 14 15 14 13
3 4 2 3 4 4 5 5 4 5 5 5 5 5 6 7 5 6 7 6 4 4 4 4 6 6 7 7 8 9 9 9 10 10 9 9 8 7 7 7 6 5 5 6 7 6 9 9 8 8 9 12 11 12 15 16 16 15 15 11 10 10 11 12 12 12 11 11 11 11 12 12 11 10 11 15 16 12 12 13 13 12 10 10 10
3 3 3 1 1 2 2 2 4 4 6 7 5 5 6 6 7 7 7 7 7 7 7 7 6 7 8 8 8 8 9 9 9 9 10 10 10 11 8 5 6 6 5 6 7 7 7 7 8 7 9 12 11 9 12 15 14 14 12 10 10 10 12 13 13 11 11 11 10 8 8 9 10 11 13 15 18 16 12 12 12 12 11 9 10
3 1 1 1 0 1 1 3 3 4 4 4 4 5 5 5 7 7 8 8 8 9 8 8 8 8 8 8 7 7 9 9 9 9 10 10 9 8 7 6 7 9 8 6 6 7 6 6 8 9 8 11 12 7 11 13 13 13 12 11 10 10 12 13 13 11 9 9 11 14 11 10 11 11 11 14 16 14 12 11 9 9 9 9 8
2 2 3 1 0 1 1 1 3 5 5 4 4 5 5 5 5 6 5 6 8 9 10 11 11 9 8 8 7 6 7 7 8 9 8 10 10 10 9 7 7 7 8 7 6 7 7 5 6 8 9 11 11 9 10 13 15 14 11 9 9 9 12 13 10 11 11 10 12 10 13 13 12 12 12 14 16 15 13 13 13 11 13 11 11
2 2 0 1 0 1 5 7 6 4 3 4 4 4 5 5 5 4 6 6 7 7 8 8 8 9 8 8 7 7 6 6 7 7 7 8 8 9 9 8 7 6 7 6 6 7 9 8 4 6 7 7 10 9 7 12 13 14 15 11 8 9 11 11 9 10 11 9 9 8 9 12 15 15 14 14 14 16 13 11 9 9 11 13 6
1 3 4 5 6 6 5 5 5 4 3 2 2 3 4 4 5 4 6 6 6 7 7 8 8 8 8 8 7 7 9 8 6 7 7 7 6 7 8 8 9 8 6 7 7 7 8 9 6 6 7 7 8 9 8 11 13 14 15 14 8 10 10 10 10 10 10 11 10 8 6 9 13 14 14 15 15 16 16 12 10 11 12 11 8
1 3 4 4 4 5 5 6 6 6 4 3 2 3 3 3 4 5 5 5 5 6 6 7 9 9 9 8 8 7 7 8 7 7 7 7 6 6 6 7 7 7 8 9 8 7 8 9 7 6 6 7 7 10 9 10 12 14 14 16 11 9 8 9 11 11 11 10 9 6 6 7 13 16 16 17 18 17 18 11 13 15 17 13 9
4 5 5 3 3 4 4 5 6 5 5 4 3 4 4 3 4 6 4 4 5 4 5 6 7 8 8 9 9 9 9 7 7 7 7 9 7 6 6 5 6 6 7 8 8 8 8 10 9 6 5 5 5 6 10 8 10 13 14 14 16 13 13 10 10 12 11 9 8 8 8 10 14 16 17 18 18 19 15 12 15 14 14 11 8
3 2 3 1 1 1 2 4 5 5 5 5 3 4 4 5 7 5 5 5 5 5 5 6 6 7 8 8 8 9 8 8 8 8 7 8 9 8 7 6 6 6 7 8 7 7 7 8 10 11 5 4 4 4 7 10 9 12 13 14 14 15 15 10 10 11 10 9 9 8 8 12 14 16 18 18 17 16 12 15 17 18 18 13 7
1 3 4 3 3 2 2 3 4 4 5 5 4 4 5 5 6 4 6 7 7 8 8 8 8 8 9 10 10 9 8 7 7 7 8 8 8 7 8 6 6 7 6 7 8 6 7 9 9 9 10 7 5 4 5 7 10 11 12 12 13 14 13 15 11 9 8 9 11 15 16 15 14 16 17 17 15 16 17 17 17 17 13 6 7
1 2 4 4 4 4 3 4 5 4 4 4 4 4 5 7 5 5 5 6 7 8 9 9 8 7 8 9 10 9 8 8 8 6 6 6 8 8 8 8 7 7 6 6 8 7 7 8 9 9 9 9 6 5 6 5 6 7 7 10 12 12 13 14 14 12 14 17 17 17 18 17 15 14 10 9 7 9 14 17 16 12 7 7 8
0 2 1 2 3 5 6 6 5 5 5 4 5 5 5 6 6 5 6 6 7 8 9 8 8 8 8 7 10 9 10 8 6 7 6 6 6 6 7 7 6 7 8 7 7 7 7 7 9 9 10 10 8 6 6 5 5 5 5 5 6 7 9 10 8 8 9 9 11 11 10 12 11 14 15 12 9 8 6 6 5 7 7 8 8
1 2 0 1 2 3 5 5 7 6 4 5 4 5 5 5 5 6 6 7 8 8 9 9 10 9 9 10 11 13 13 12 10 8 9 8 6 6 7 7 7 7 8 9 7 7 7 8 9 9 10 11 9 7 6 6 6 5 6 6 5 5 5 5 7 7 7 8 8 8 9 7 6 6 5 4 5 4 5 5 6 6 6 6 7
2 2 1 4 4 5 5 5 7 5 4 4 4 5 5 7 7 6 7 7 9 7 7 7 7 7 8 7 8 8 9 11 12 11 9 8 9 8 8 9 6 6 7 8 9 9 8 7 7 8 9 12 11 9 6 7 10 12 12 11 9 8 7 7 8 11 10 7 6 6 6 5 4 5 5 5 5 5 4 4 5 5 5 6 6
3 2 4 4 4 5 5 5 5 4 5 6 6 6 7 6 7 6 7 9 9 8 5 6 6 7 8 9 9 9 9 9 10 11 12 12 9 11 11 9 11 7 12 14 12 10 9 7 9 8 6 10 11 11 14 18 17 17 17 16 15 15 15 13 13 15 11 9 7 7 7 6 6 5 6 6 6 6 6 6 5 5 6 7 8
4 5 5 5 5 4 4 5 6 6 7 7 7 7 8 7 7 7 7 7 6 7 7 7 7 7 9 10 10 11 10 9 10 10 10 12 15 11 10 15 16 15 15 14 15 17 17 15 11 11 9 13 16 17 16 16 17 17 17 16 16 15 16 15 15 11 8 7 8 8 8 6 7 6 8 7 6 6 6 7 7 6 6 8 8
Wind_Direction
244 233 227 227 228 221 214 210 213 208 207 203 203 204 203 205 198 208 205 197 191 194 195 192 197 205 209 205 213 211 211 211 213 213 210 213 210 205 202 207 208 211 216 211 215 217 218 212 206 210 206 206 209 216 211 210 207 203 204 201 204 209 221 206 204 180 204 245 238 245 256 245 237 226 222 222 220 216 210 209 215 213 217 213 212
261 268 261 249 243 235 222 218 214 210 224 208 205 204 204 204 203 209 196 198 202 199 197 199 201 201 199 206 207 206 204 205 214 214 215 215 211 208 206 205 207 211 213 215 214 217 219 217 213 211 206 212 216 217 214 209 206 207 195 205 209 206 219 199 199 160 220 217 217 266 270 263 239 238 239 231 222 218 208 208 209 211 215 216 213
245 243 245 243 243 243 224 223 221 216 216 207 211 202 202 203 208 203 200 200 205 203 199 206 207 209 204 211 206 212 215 215 219 218 218 218 214 212 212 210 208 212 210 213 218 216 220 221 218 212 211 212 213 217 214 212 207 207 203 205 204 221 221 200 197 193 218 183 138 24 257 254 271 255 243 235 227 222 211 213 210 212 216 211 206
241 239 242 243 241 244 241 234 227 223 226 222 214 208 205 208 205 202 204 205 207 206 206 210 208 209 213 216 211 210 210 212 218 219 218 218 220 213 216 213 211 214 212 212 218 221 218 221 223 216 214 210 211 213 213 216 208 210 209 212 203 213 215 220 203 201 199 138 194 212 215 158 300 241 228 234 217 226 214 220 210 215 218 214 203
236 248 251 251 254 246 237 235 228 217 221 217 210 208 210 209 207 202 205 207 209 208 207 206 202 206 208 217 198 218 243 194 204 225 216 216 220 216 219 210 212 214 213 214 214 221 220 220 220 221 216 212 211 215 213 213 211 210 208 209 208 211 216 217 212 202 204 197 175 123 147 218 230 254 164 262 208 224 225 219 215 213 214 210 204
226 232 232 231 237 257 264 258 244 236 231 223 211 212 212 216 210 210 212 212 212 209 203 196 201 199 191 200 210 209 219 207 212 214 207 211 214 218 218 212 213 215 215 218 218 217 222 221 219 220 220 216 213 216 216 212 212 210 208 209 214 216 218 215 219 217 212 206 211 207 160 178 187 222 141 265 299 228 225 217 217 214 215 210 209
246 246 252 256 252 248 256 251 234 227 233 226 220 224 224 226 218 213 214 217 213 205 192 194 205 206 205 208 212 212 218 225 222 221 216 220 217 217 216 213 214 215 217 217 220 219 221 222 220 220 221 221 217 217 217 214 212 212 208 210 215 213 212 221 216 212 212 229 219 225 239 214 148 125 217 320 297 307 232 220 225 219 221 218 212
240 244 245 246 246 240 245 246 233 225 231 226 229 232 230 231 223 222 221 220 211 196 191 195 204 206 211 216 217 221 220 230 213 219 217 212 212 217 212 216 213 216 218 218 220 220 218 221 220 220 221 221 217 218 219 217 215 216 211 213 214 211 210 218 219 208 198 216 209 219 231 238 226 241 173 187 183 245 293 285 267 230 230 228 219
229 235 242 241 240 239 237 250 239 237 240 217 223 225 230 235 232 230 227 220 217 200 198 201 206 209 211 216 223 227 229 234 215 206 207 202 215 215 215 217 216 218 218 220 220 221 218 220 219 220 220 221 216 222 222 218 215 213 211 212 213 214 211 217 219 217 210 218 192 220 226 229 230 235 236 206 222 236 258 227 241 252 253 242 229
228 226 237 245 247 255 238 248 289 261 256 241 248 255 250 244 240 235 237 224 219 211 207 210 211 213 217 221 226 232 227 240 212 220 214 198 216 218 216 217 217 218 220 220 222 222 222 218 219 221 221 220 217 221 221 219 218 216 214 213 215 217 216 215 218 220 215 221 210 208 208 223 230 241 236 227 241 220 246 230 218 199 220 235 220
249 249 238 229 233 223 242 238 278 321 321 339 306 271 272 259 250 247 247 250 227 214 206 218 215 213 222 224 227 233 227 222 227 232 220 211 220 220 216 219 215 220 217 222 222 221 223 220 219 221 221 220 219 221 220 220 218 217 216 215 216 217 217 217 219 224 219 216 217 209 212 207 207 209 219 212 215 224 234 249 240 210 218 244 224
286 197 154 153 90 359 18 330 326 318 333 319 311 313 309 285 284 264 275 265 256 234 222 230 224 223 226 227 229 231 227 223 224 229 223 222 222 225 219 217 220 219 217 221 220 219 219 222 220 221 221 220 220 220 222 222 220 217 216 216 219 219 219 216 217 220 220 220 219 219 219 218 221 224 227 207 208 226 218 238 240 205 252 245 241
171 206 199 241 188 42 324 310 327 327 321 305 299 307 304 306 290 277 279 280 266 257 242 239 229 228 225 227 231 231 230 228 229 232 228 227 225 228 220 220 219 217 219 219 221 215 214 220 220 218 220 220 221 220 223 223 221 218 218 219 220 219 217 215 215 218 215 218 220 218 221 220 225 226 229 208 217 225 219 243 244 172 235 246 236
164 202 213 214 174 271 276 273 289 304 313 315 310 315 304 299 291 270 269 276 276 277 261 254 243 238 231 228 229 228 232 230 233 234 233 231 228 229 224 222 221 221 221 220 220 213 214 219 220 222 223 224 222 222 223 222 220 221 219 220 221 222 220 218 222 223 222 225 224 222 219 221 226 223 223 214 214 204 223 228 242 230 232 252 247
184 205 214 194 147 216 279 289 296 308 319 318 321 308 320 308 293 276 282 280 270 262 266 261 258 250 242 236 234 229 232 232 235 234 236 233 230 231 229 226 226 227 226 227 219 213 215 219 221 224 224 223 220 221 222 222 221 222 222 223 225 222 223 220 223 223 224 224 224 223 224 219 225 224 220 220 216 218 221 223 218 242 259 245 255
213 159 112 46 4 298 304 341 293 317 310 315 315 304 309 289 287 276 264 280 277 272 262 253 260 257 248 241 237 233 233 235 240 238 239 237 237 233 236 232 230 231 231 228 222 213 213 217 219 222 223 223 221 220 220 220 219 221 222 223 225 220 225 220 224 222 226 225 225 225 226 227 223 222 220 221 220 222 223 224 210 222 240 262 229
186 149 148 43 25 31 196 184 271 310 317 307 288 280 266 275 284 287 289 291 285 274 267 265 264 264 258 248 245 239 235 234 237 240 239 239 239 240 239 238 237 232 233 228 227 217 217 216 218 221 222 222 222 220 220 220 219 220 222 223 225 223 225 224 222 223 226 225 227 224 225 229 226 226 221 218 221 221 224 221 212 218 219 240 256
181 181 89 127 173 172 189 221 223 236 258 276 277 274 263 252 249 259 272 281 285 281 279 275 273 269 265 259 250 240 238 239 239 242 240 239 239 241 243 244 239 236 233 232 224 222 222 219 221 222 222 221 222 221 219 220 219 222 221 224 225 224 227 227 226 225 227 225 228 228 226 231 227 227 227 217 212 217 220 218 217 218 210 225 237
116 124 128 124 147 164 189 212 252 250 257 253 262 272 284 278 257 238 247 241 247 266 273 277 266 265 266 265 256 252 245 243 242 240 238 236 238 238 239 241 245 241 239 237 230 228 225 224 223 226 224 223 222 223 220 221 219 224 223 227 226 226 229 230 228 227 230 227 230 231 229 233 227 231 230 223 217 214 218 216 219 211 216 221 232
140 152 165 177 184 190 188 199 358 313 287 272 271 289 284 265 267 267 271 265 267 265 262 269 268 265 273 275 271 261 256 250 247 240 235 235 237 238 239 243 242 242 242 239 237 234 231 230 227 228 228 226 225 224 222 222 220 224 224 226 227 225 231 233 232 228 229 227 230 232 229 230 228 232 231 226 224 219 218 217 214 214 220 220 224
169 178 182 181 173 147 256 287 319 322 335 301 286 280 272 286 274 259 255 267 251 252 254 259 265 269 269 273 273 274 268 261 258 247 243 241 239 236 237 238 243 241 240 242 239 239 236 232 231 228 227 226 224 225 222 222 222 225 226 228 228 226 231 234 234 234 230 231 231 234 233 230 227 230 230 228 224 224 222 224 219 216 222 215 218
168 180 165 150 152 230 297 296 324 3 342 330 313 300 290 274 255 262 264 266 255 273 248 256 259 262 269 273 277 276 272 272 264 259 249 249 246 240 236 235 234 240 232 238 239 241 238 234 231 229 228 228 226 225 222 220 222 225 228 227 229 227 232 235 232 236 230 231 232 235 235 231 226 231 231 227 223 225 223 225 224 220 225 220 210
173 153 155 166 176 201 250 3 352 333 312 301 302 295 274 273 279 262 244 267 244 257 260 256 265 274 274 274 280 281 279 274 269 264 258 253 251 248 239 234 235 239 233 229 234 234 235 233 232 230 228 228 226 227 222 219 222 224 226 227 227 226 229 232 232 234 232 230 234 235 237 232 230 234 233 232 224 227 224 227 227 217 227 226 216
124 126 155 185 209 16 23 342 317 308 302 292 287 292 281 277 273 269 256 274 294 268 264 267 270 277 278 288 282 279 283 278 273 266 263 260 255 253 246 241 240 239 236 232 226 230 230 229 231 231 227 226 225 224 221 218 221 221 225 227 226 227 228 230 233 234 233 231 233 236 237 232 231 236 238 236 235 229 226 228 231 228 229 231 230
82 102 47 15 349 267 269 286 279 276 283 278 282 286 281 284 292 286 287 287 285 279 263 264 264 277 287 286 285 287 284 280 274 272 269 268 264 260 253 248 248 244 240 237 235 225 228 226 228 230 229 226 226 223 221 222 223 224 225 227 227 228 230 232 233 234 232 231 233 234 238 233 232 237 239 235 233 232 231 231 233 232 231 232 230
313 338 346 271 246 266 298 276 266 264 259 269 279 281 279 285 293 285 278 302 291 279 254 260 271 279 285 287 283 289 282 276 276 278 274 274 272 264 260 254 245 250 248 240 236 230 224 227 228 230 229 230 226 222 222 224 224 224 226 228 229 229 231 232 233 233 232 230 233 235 236 232 232 232 236 233 229 230 228 229 229 227 227 229 232
300 273 255 280 298 285 272 271 257 259 260 263 270 280 282 292 294 295 288 285 285 284 279 275 276 273 284 286 292 292 290 289 288 285 285 283 277 272 267 262 252 247 251 250 242 239 235 230 233 230 231 230 228 222 225 228 229 228 227 229 231 233 234 234 236 235 235 234 235 236 235 230 229 230 232 230 226 226 224 229 228 230 231 231 232
263 270 267 263 265 284 292 276 274 269 271 274 269 264 267 274 284 309 318 316 310 325 306 296 292 291 284 283 287 294 300 298 299 297 295 294 296 292 284 278 276 262 253 253 253 245 245 234 237 233 234 228 229 229 229 230 231 231 232 235 234 236 239 240 240 239 236 236 235 236 235 229 227 228 228 230 223 228 223 228 221 218 219 219 227
271 270 268 267 272 272 273 273 268 276 280 279 280 287 305 314 312 327 338 334 331 337 321 311 307 294 287 293 300 301 297 300 300 299 298 297 296 294 293 288 281 273 267 261 261 259 256 249 247 244 243 233 229 232 230 228 230 233 233 238 238 237 237 239 240 239 237 236 237 234 234 233 229 229 224 222 221 220 222 229 226 220 225 222 226
261 262 271 269 253 248 250 263 285 284 277 283 305 314 320 337 336 337 343 331 350 333 330 320 312 298 297 300 299 300 302 304 304 301 299 297 296 294 292 290 287 283 287 289 291 281 267 262 261 256 248 243 240 240 237 230 223 224 228 233 237 239 237 238 239 241 239 234 233 233 236 236 236 233 231 228 223 217 214 216 218 213 218 220 222
268 264 259 258 262 257 260 282 284 287 314 338 327 336 345 350 352 348 340 328 345 334 330 325 316 311 306 302 302 297 303 304 299 301 299 299 296 296 294 291 288 290 292 295 301 296 283 276 270 268 263 252 247 246 242 234 232 229 229 235 237 242 241 242 241 241 243 239 237 233 231 222 222 226 225 222 222 223 225 225 226 222 214 210 212
258 260 263 277 275 294 313 287 294 328 354 356 357 354 8 4 343 341 328 329 338 331 325 320 313 317 321 320 315 310 310 304 307 302 302 299 299 298 294 289 290 291 287 301 294 279 281 283 283 279 271 264 259 254 250 249 242 236 231 239 247 248 245 245 245 243 244 241 240 240 240 240 232 228 223 223 229 232 232 232 233 233 228 216 208
251 259 274 277 301 336 359 9 23 8 360 355 6 24 8 339 340 324 331 338 338 330 325 325 325 328 327 327 325 326 319 313 310 307 306 307 304 299 294 294 289 286 301 292 282 289 284 283 277 278 279 279 277 272 265 259 254 249 242 237 252 253 256 255 250 249 249 247 243 238 236 230 229 223 229 239 241 238 236 237 236 233 229 222 221
268 336 24 20 15 14 23 57 31 350 354 339 21 21 337 303 307 320 339 341 340 337 337 331 334 333 331 329 328 329 326 320 318 316 315 314 311 302 297 291 289 298 291 285 284 279 280 281 281 281 279 278 275 284 293 289 281 267 259 247 246 246 246 250 248 244 242 241 239 238 241 242 240 231 228 227 229 230 227 230 235 235 235 237 238
85 60 21 18 12 4 7 5 8 358 356 14 11 3 351 350 351 352 355 348 349 338 343 344 341 331 332 332 331 329 325 322 322 322 321 314 305 301 301 295 295 290 288 281 284 285 277 275 277 276 279 279 277 284 285 286 292 291 286 273 262 260 254 252 253 255 254 251 248 247 247 249 242 228 223 213 225 233 239 238 233 231 229 227 223
114 109 74 37 20 7 357 343 335 5 5 19 6 350 2 346 338 353 351 353 351 350 340 346 340 335 333 329 328 325 322 322 322 323 323 320 317 307 303 301 292 288 278 280 281 269 276 277 272 273 273 274 273 276 278 280 280 280 283 281 271 267 264 261 258 252 253 256 253 243 239 237 235 234 237 228 230 229 224 229 228 230 232 232 232
120 122 104 86 15 18 343 348 356 10 14 360 345 359 1 351 355 350 351 347 350 351 348 344 336 332 330 328 328 323 320 319 320 321 319 319 319 318 313 301 300 287 281 279 274 272 271 275 276 268 269 273 276 273 270 271 272 271 272 268 267 264 263 264 262 261 255 256 254 247 244 245 243 241 227 217 226 226 235 233 232 230 226 220 230
123 145 148 150 152 350 357 62 24 9 4 352 349 360 4 357 349 346 351 348 350 345 338 335 331 329 325 324 322 321 318 317 319 317 314 310 306 298 296 306 302 303 299 281 275 281 269 261 268 269 261 276 282 286 279 279 276 269 259 261 262 264 264 258 260 258 258 259 254 245 240 243 243 243 232 221 223 219 232 235 232 239 245 242 244
82 92 36 35 130 167 179 114 62 28 348 354 356 6 5 353 348 345 346 344 342 336 337 333 328 324 321 317 313 311 308 308 311 310 310 308 307 305 302 302 293 288 284 292 288 284 281 260 252 263 266 266 279 282 272 271 269 266 260 260 262 259 262 262 265 266 256 250 252 243 237 238 242 248 237 227 226 218 225 224 219 220 230 232 232
342 340 290 308 328 70 24 20 19 354 318 349 2 15 360 346 339 345 348 342 333 325 317 314 313 315 316 314 311 307 301 300 300 297 296 293 296 304 304 304 296 285 289 292 287 284 288 288 273 270 271 266 277 281 271 267 267 263 256 254 257 260 263 271 270 268 274 265 258 255 234 233 242 247 247 240 230 218 223 232 223 222 225 236 206
13 348 356 16 16 33 12 341 326 325 339 355 41 31 350 334 333 344 334 319 312 314 316 315 314 313 313 311 309 306 307 302 289 289 286 286 286 286 295 301 303 304 296 293 290 288 289 289 284 274 275 270 265 277 274 262 264 263 261 255 256 254 264 272 274 270 263 268 267 258 258 232 233 242 242 241 235 227 223 225 220 224 218 229 187
336 351 27 20 16 9 356 342 331 335 336 350 36 9 328 317 326 315 298 299 304 304 308 312 315 313 312 311 311 305 296 295 296 298 301 294 284 275 277 282 284 292 299 299 298 293 290 289 285 263 259 264 254 248 265 259 257 259 259 255 254 258 253 264 267 266 265 267 271 277 264 236 229 234 235 234 233 229 224 222 228 226 233 226 187
347 352 354 46 15 359 341 320 315 323 329 328 2 341 327 323 315 290 280 283 285 289 297 299 301 306 308 309 309 310 309 306 300 299 300 305 304 301 290 279 284 291 289 291 292 293 295 298 298 279 255 259 260 259 256 261 258 257 259 259 258 259 260 255 260 266 266 270 268 261 254 236 228 233 236 237 236 232 229 229 232 229 231 216 199
299 269 290 23 46 328 314 312 311 311 318 317 331 311 312 320 300 300 312 303 297 297 299 307 309 308 309 309 307 304 298 295 300 305 308 305 311 311 306 302 298 295 300 300 296 292 292 295 302 308 293 259 258 256 258 258 260 256 256 258 261 262 262 258 255 265 276 273 278 273 263 251 240 237 237 238 237 230 223 224 221 223 219 207 182
282 307 319 346 347 332 304 300 296 295 301 306 301 300 298 297 286 309 310 315 319 321 319 314 312 313 315 315 311 305 300 298 301 306 311 315 311 315 314 311 306 303 295 295 295 297 295 297 300 298 304 305 289 278 268 264 261 260 257 258 261 264 265 265 267 268 267 270 270 274 277 269 256 248 244 244 242 235 229 228 225 221 206 175 182
297 318 330 332 350 350 338 312 302 287 281 282 284 279 286 279 295 305 306 314 316 318 315 312 307 305 304 303 303 303 303 304 304 299 294 292 300 308 306 307 307 296 293 290 296 300 298 298 297 299 302 304 306 295 286 275 270 268 263 260 257 258 262 263 263 272 274 276 277 276 272 268 261 256 252 249 243 233 228 228 226 210 188 190 182
245 280 336 8 9 338 325 319 314 297 291 282 276 276 267 283 294 300 305 307 310 308 305 307 309 309 309 309 312 314 313 305 300 299 290 285 284 285 286 289 289 295 295 292 288 294 297 296 298 302 303 306 308 311 301 296 280 279 274 270 266 262 262 268 274 272 274 272 272 268 261 253 245 244 240 243 245 243 238 231 207 196 199 199 200
280 295 98 22 334 306 304 308 307 302 301 300 295 292 293 298 297 303 308 311 311 310 310 313 317 320 322 325 322 321 321 315 315 311 305 301 281 272 282 280 287 287 296 296 292 287 287 293 300 302 305 304 304 306 308 311 312 315 310 295 280 276 276 273 280 280 277 280 283 280 270 269 259 258 249 241 235 223 223 216 203 194 199 196 197
358 327 333 319 297 302 290 295 295 306 325 325 317 311 312 309 307 306 306 309 303 300 295 295 297 301 300 302 301 299 303 306 307 310 299 292 300 299 287 282 242 237 250 270 288 278 274 273 273 286 299 301 300 302 300 312 307 305 305 307 308 302 297 286 271 277 289 289 287 280 274 265 247 248 241 232 230 221 221 221 213 195 185 187 189
309 311 318 316 308 290 295 301 307 325 335 329 323 321 315 310 306 307 312 311 308 307 303 300 304 310 312 314 311 309 305 302 302 303 306 301 270 263 275 280 292 258 244 249 248 266 269 278 284 268 243 271 285 293 304 305 302 301 297 293 289 288 285 283 283 281 283 291 283 276 265 256 252 237 240 235 229 220 208 195 209 204 196 192 198
338 339 337 329 317 329 344 340 325 329 320 321 317 318 315 312 312 313 316 309 318 318 315 314 318 317 317 313 310 310 309 304 303 303 303 304 309 297 260 264 263 270 271 265 264 263 266 264 260 283 271 253 268 280 287 292 294 294 294 291 290 289 286 283 282 288 283 260 274 269 267 251 250 244 243 240 226 223 215 207 210 208 218 210 202